YXDU weather

Dunwich Hospital Helipad
Dunwich, Queensland, Australia

Public forecast

Using degrees Celsius for public forecast. Weather courtesy of forecast.io.

METAR (pilot weather report)

Closest report is Brisbane International Airport, 16.5 nm (30.5 km) WNW. Retrieved 2019/02/22 10:00 UTC (7 minutes ago):

YBBN 221000Z 19008KT CAVOK 25/11 Q1011 FM1000 SEV TURB BLW 5000FT

TAF (pilot weather forecast)

Forecast is more than 12 hours old.

Closest forecast is Brisbane International Airport, 16.5 nm (30.5 km) WNW. Retrieved 2019/02/20 00:00 UTC (2 days ago):

TAF YBBN 202315Z 2100/2206 15015KT 9999 -SHRA SCT025 SCT035 FM210100 14018G28KT 9999 SCT035 FM211000 18015KT 9999 -SHRA FEW015 BKN025 FM212100 16022G32KT 9999 -SHRA FEW015 BKN030 FM220000 17025G35KT 9999 SCT030 INTER 2112/2124 16020G38KT 4000 SHRA BKN012